Hourly Data Report for March 24, 2018

MIRAMICHI RCS
NEW BRUNSWICK

47°00'34.000" N
65°27'54.000" W
33.00 m
8100989
71744
ACQ

Download Data

Hourly Data (March 2018)
Hourly Data Report for March 24, 2018
TIME
LST
Temp Definition
°C
Dew Point Definition
°C
Rel Hum Definition
%
Precip. Amount Definition
mm

Wind Dir Definition
10's deg

Wind Spd Definition
km/h
Visibility Definition
km
Stn Press Definition
kPa
Hmdx Definition


Wind Chill Definition


Weather Definition


00:00 -0.2 -2.6 84 0.0 0 1   100.95   -1 LegendNANA
01:00 0.1 -2.6 82 0.0 32 3   100.99     LegendNANA
02:00 0.3 -2.2 84 0.0 1 6   101.02     LegendNANA
03:00 0.2 -2.1 85 0.0 2 7   101.02     LegendNANA
04:00 0.0 -2.0 87 0.0 2 6   101.04   -2 LegendNANA
05:00 -0.3 -1.6 91 0.2 36 4   101.08   -2 LegendNANA
06:00 -0.3 -1.6 91 0.0 2 7   101.14   -3 LegendNANA
07:00 -0.4 -2.0 89 0.0 3 9   101.21   -4 LegendNANA
08:00 -0.3 -2.5 85 0.0 4 12   101.26   -4 LegendNANA
09:00 -0.3 -3.1 82 0.0 5 17   101.32   -5 LegendNANA
10:00 -0.5 -4.0 77 0.0 6 24   101.38   -6 LegendNANA
11:00 -0.2 -3.5 78 0.0 7 23   101.41   -6 LegendNANA
12:00 -0.4 -4.1 76 0.2 7 32   101.42   -7 LegendNANA
13:00 -0.2 -4.5 72 0.0 7 31   101.45   -7 LegendNANA
14:00 0.1 -4.3 72 0.0 8 34   101.48     LegendNANA
15:00 -0.5 -4.5 74 0.0 7 32   101.55   -7 LegendNANA
16:00 -0.6 -5.5 69 0.0 5 25   101.61   -7 LegendNANA
17:00 -0.6 -5.9 67 0.0 3 22   101.66   -6 LegendNANA
18:00 -0.8 -5.6 70 0.0 5 20   101.73   -6 LegendNANA
19:00 -1.0 -6.0 69 0.0 4 21   101.83   -7 LegendNANA
20:00 -0.9 -6.3 67 0.0 4 20   101.90   -6 LegendNANA
21:00 -1.1 -6.1 69 0.0 4 18   102.04   -6 LegendNANA
22:00 -1.6 -6.2 71 0.0 4 17   102.08   -7 LegendNANA
23:00 -1.7 -6.0 73 0.0 3 16   102.12   -7 LegendNANA

Notes on Data Quality.

Legend

  • E = Estimated
  • M = Missing
  • NA = Not Available*
  • [empty] = Indicates an unobserved value
Date modified: